Starlink 4320

operational
NORAD ID: 53059 Int'l Des: 2022-077 Owner: SPXS Country: US Constellation: starlink
LEOCIRCULARRETROGRADESSO

Starlink 4320について

説明を読み込み中...

リアルタイム位置

3D地球を読み込み中...

次回通過

高度履歴

Altitude vs Time

uPlot chart will show altitude changes over time

軌道要素

1 53059U 22077S 25304.04307957 .00000453 00000-0 39806-4 0 9991
2 53059 97.6026 123.2932 0003634 64.0950 296.0648 15.01263411181465
Epoch: Oct 31, 2025 • Age: 19 hours

現在のステータス

高度 564.1 km
速度 7.58 km/s
衛星直下点 25.36°N, 134.95°E
打ち上げ日 Jul 11, 2022
運用期間 3.3 years
タイプ internet

技術仕様

分類 Payload
質量 297.00 kg
乾燥質量 275.00 kg
総質量 297.00 kg
長さ 0.20 m
直径 2.80 m
スパン 9.00 m
形状 Box + pan
製造者 SPXS
バスタイプ Starlink
フェーズステータス In Orbit
所有者/国 SPXS/US

大規模コンステレーション

Loading constellations...